Weather History for Corpus Christi, TX

Change the Weather History Date:

Monday, September 9, 2013

  Actual Average Record
Temperature  
Mean Temperature 84 °F 82 °F  
Max Temperature 90 °F 91 °F 99 °F (1997)
Min Temperature 77 °F 73 °F 64 °F (1974)
Degree Days  
Heating Degree Days 0 0  
Month to date heating degree days 0 0  
Since 1 July heating degree days 0 0  
Cooling Degree Days 19 17  
Month to date cooling degree days 187 163  
Year to date cooling degree days 3200 2724  
Growing Degree Days 34 (Base 50)    
Moisture  
Dew Point 73 °F    
Average Humidity 71    
Maximum Humidity 85    
Minimum Humidity 56    
Precipitation  
Precipitation 0.65 in 0.19 in 3.69 in (2001)
Month to date precipitation 1.86 1.61  
Year to date precipitation 12.87 20.95  
Snow  
Snow 0.00 in - - ()
Month to date snowfall 0.0  
Since 1 July snowfall 0.0  
Since 1 September snowfall 0.0  
Snow Depth 0.00 in    
Sea Level Pressure  
Sea Level Pressure 29.90 in    
Wind  
Wind Speed 11 mph (ESE)    
Max Wind Speed 24 mph    
Max Gust Speed 31 mph    
Visibility 9 miles    
Events Rain , Thunderstorm    
T = Trace of Precipitation, MM = Missing Value Source: NWS Daily Summary

Daily Weather History Graph

Daily Weather History Graph

Search for Another Location

Airport:

Trip Planner

Search our weather history database for the weather conditions in past years. The results will help you decide how hot, cold, wet, or windy it might be!

Date:

Astronomy

Sep. 09, 2013 Rise Set
Actual Time 7:12 AM CDT 7:41 PM CDT
Civil Twilight 6:49 AM CDT 8:04 PM CDT
Nautical Twilight 6:21 AM CDT 8:32 PM CDT
Astronomical Twilight 5:53 AM CDT 9:00 PM CDT
Moon 11:09 AM CDT (9/9) 10:27 PM CDT (9/9)
Length of Visible Light 13h 15m
Length of Day
12h 28m
Waxing Crescent, 19% of the Moon is Illuminated
Sep 9
Waxing Crescent
Sep 12
First Quarter
Sep 19
Full
Sep 26
Last Quarter
Oct 4
New

Hourly Weather History & Observations

Time (CDT) Temp. Heat Index Dew Point Humidity Pressure Visibility Wind Dir Wind Speed Gust Speed Precip Events Conditions
12:51 AM 78.1 °F - 73.0 °F 84% 29.88 in 10.0 mi East 5.8 mph - N/A   Partly Cloudy
1:51 AM 79.0 °F - 73.0 °F 82% 29.87 in 10.0 mi East 6.9 mph - N/A   Mostly Cloudy
2:06 AM 78.8 °F - 71.6 °F 78% 29.88 in 7.0 mi East 11.5 mph 26.5 mph 0.03 in Rain Rain
2:51 AM 79.0 °F - 73.0 °F 82% 29.87 in 10.0 mi Calm Calm - 0.11 in   Mostly Cloudy
3:51 AM 79.0 °F - 73.9 °F 84% 29.87 in 10.0 mi ESE 9.2 mph - 0.01 in   Scattered Clouds
4:51 AM 78.1 °F - 73.0 °F 84% 29.87 in 10.0 mi East 6.9 mph - N/A   Mostly Cloudy
5:51 AM 79.0 °F - 73.9 °F 84% 29.87 in 10.0 mi South 9.2 mph - N/A   Mostly Cloudy
5:58 AM 78.8 °F - 73.4 °F 83% 29.87 in 10.0 mi SSE 21.9 mph 26.5 mph 0.00 in Rain Light Rain
6:25 AM 77.0 °F - 73.4 °F 89% 29.88 in 10.0 mi East 3.5 mph - 0.21 in Rain Light Rain
6:51 AM 78.1 °F - 73.0 °F 84% 29.88 in 10.0 mi ESE 4.6 mph - 0.22 in   Scattered Clouds
7:24 AM 77.0 °F - 73.4 °F 89% 29.90 in 0.5 mi ESE 23.0 mph 31.1 mph 0.06 in Rain Heavy Rain
7:33 AM 78.8 °F - 73.4 °F 83% 29.90 in 5.0 mi SSE 10.4 mph - 0.23 in Rain Rain
7:51 AM 78.1 °F - 73.0 °F 84% 29.90 in 7.0 mi SE 6.9 mph - 0.30 in Rain Rain
8:51 AM 79.0 °F - 73.9 °F 84% 29.91 in 10.0 mi SE 11.5 mph - 0.00 in   Mostly Cloudy
9:09 AM 80.6 °F 85.4 °F 73.4 °F 79% 29.92 in 10.0 mi ESE 8.1 mph - N/A Thunderstorm Thunderstorm
9:51 AM 84.9 °F 92.1 °F 73.9 °F 69% 29.93 in 10.0 mi ESE 11.5 mph - N/A   Scattered Clouds
10:51 AM 87.1 °F 94.5 °F 73.0 °F 63% 29.93 in 10.0 mi ESE 13.8 mph - N/A   Scattered Clouds
11:51 AM 88.0 °F 96.5 °F 73.9 °F 63% 29.93 in 10.0 mi East 16.1 mph - N/A   Scattered Clouds
12:51 PM 89.1 °F 95.0 °F 71.1 °F 55% 29.93 in 10.0 mi ESE 16.1 mph 26.5 mph N/A   Scattered Clouds
1:51 PM 88.0 °F 96.5 °F 73.9 °F 63% 29.91 in 9.0 mi East 18.4 mph 25.3 mph 0.00 in Rain Light Rain
2:41 PM 84.2 °F 90.9 °F 73.4 °F 70% 29.90 in 10.0 mi SSE 11.5 mph 25.3 mph 0.00 in   Mostly Cloudy
2:51 PM 82.9 °F 89.4 °F 73.9 °F 74% 29.90 in 10.0 mi SSE 17.3 mph - 0.00 in   Mostly Cloudy
3:51 PM 87.1 °F 96.3 °F 75.0 °F 67% 29.88 in 10.0 mi SE 15.0 mph - 0.01 in   Mostly Cloudy
4:51 PM 84.9 °F 91.4 °F 73.0 °F 67% 29.88 in 10.0 mi ESE 17.3 mph 21.9 mph N/A   Scattered Clouds
5:51 PM 84.9 °F 93.3 °F 75.0 °F 72% 29.89 in 10.0 mi East 15.0 mph - 0.00 in   Scattered Clouds
6:51 PM 84.9 °F 92.1 °F 73.9 °F 69% 29.88 in 10.0 mi ESE 15.0 mph 25.3 mph N/A   Mostly Cloudy
7:51 PM 82.9 °F 88.0 °F 72.0 °F 69% 29.89 in 10.0 mi ESE 15.0 mph - N/A   Scattered Clouds
8:51 PM 82.0 °F 87.4 °F 73.0 °F 74% 29.91 in 10.0 mi ESE 13.8 mph - N/A   Scattered Clouds
9:51 PM 79.0 °F - 73.0 °F 82% 29.92 in 10.0 mi ESE 9.2 mph - N/A   Mostly Cloudy
10:51 PM 80.1 °F 84.5 °F 73.9 °F 81% 29.94 in 10.0 mi SE 4.6 mph - N/A   Mostly Cloudy
11:51 PM 79.0 °F - 73.9 °F 84% 29.93 in 10.0 mi SE 5.8 mph - N/A   Partly Cloudy